New Castle, PA

4:29 PM EDT on September 23, 2017 (GMT -0400)
New Castle Municipal

Weather History for KUCP - April, 2013

Change the Weather History Date:

Wednesday, April 24, 2013

  Actual Average Record
Temperature  
Mean Temperature 48 °F -  
Max Temperature 59 °F 65 °F 89 °F (1985)
Min Temperature 36 °F 40 °F 25 °F (1989)
Degree Days  
Heating Degree Days 18    
Moisture  
Dew Point 44 °F    
Average Humidity 84    
Maximum Humidity 94    
Minimum Humidity 38    
Precipitation  
Precipitation 0.43 in - - ()
Sea Level Pressure  
Sea Level Pressure 29.89 in    
Wind  
Wind Speed 8 mph (WSW)    
Max Wind Speed 22 mph    
Max Gust Speed 33 mph    
Visibility 6 miles    
Events Rain    
Averages and records for this station are not official NWS values.
T = Trace of Precipitation, MM = Missing Value Source: NWS Daily Summary

Daily Weather History Graph

Daily Weather History Graph

Search for Another Location

Airport or City:

Trip Planner

Search our weather history database for the weather conditions in past years. The results will help you decide how hot, cold, wet, or windy it might be!

Date:

Astronomy

Apr. 24, 2013 Rise Set
Actual Time 6:28 AM EDT 8:11 PM EDT
Civil Twilight 5:59 AM EDT 8:40 PM EDT
Nautical Twilight 5:24 AM EDT 9:16 PM EDT
Astronomical Twilight 4:46 AM EDT 9:54 PM EDT
Moon 7:12 PM EDT (4/24) 5:32 AM EDT (4/24)
Length of Visible Light 14h 41m
Length of Day
13h 42m
Waxing Gibbous, 98% of the Moon is Illuminated
Apr 24
Waxing Gibbous
Apr 25
Full
May 2
Last Quarter
May 9
New
May 18
First Quarter

Hourly Weather History & Observations

Time (EDT) Temp. Windchill Dew Point Humidity Pressure Visibility Wind Dir Wind Speed Gust Speed Precip Events Conditions
12:56 AM 59.9 °F - 34.0 °F 38% 29.96 in 10.0 mi SSE 5.8 mph - N/A   Scattered Clouds
1:56 AM 57.9 °F - 36.0 °F 44% 29.95 in 10.0 mi Variable 4.6 mph - N/A   Mostly Cloudy
2:56 AM 56.8 °F - 36.9 °F 47% 29.94 in 10.0 mi Variable 4.6 mph - N/A   Mostly Cloudy
3:56 AM 55.9 °F - 37.9 °F 51% 29.93 in 10.0 mi Variable 3.5 mph - 0.00 in   Scattered Clouds
4:56 AM 55.4 °F - 39.2 °F 54% 29.90 in 10.0 mi Calm Calm - N/A   Scattered Clouds
5:56 AM 50.9 °F - 45.9 °F 83% 29.93 in 8.0 mi Calm Calm - 0.07 in Rain Light Rain
6:30 AM 51.8 °F - 46.4 °F 82% 29.88 in 1.8 mi SSE 4.6 mph - 0.08 in Rain Heavy Rain
6:43 AM 50.0 °F - 46.4 °F 87% 29.87 in 3.0 mi SE 6.9 mph - 0.12 in Rain Light Rain
6:56 AM 50.9 °F - 46.9 °F 86% 29.91 in 4.0 mi Variable 5.8 mph - 0.14 in Rain Rain
7:28 AM 51.8 °F - 48.2 °F 88% 29.87 in 1.8 mi Variable 3.5 mph - 0.04 in Rain Rain
7:34 AM 51.8 °F - 48.2 °F 88% 29.87 in 3.0 mi Variable 3.5 mph - 0.05 in Rain Light Rain
7:56 AM 50.9 °F - 48.9 °F 93% 29.90 in 10.0 mi SSE 6.9 mph - 0.05 in   Overcast
8:56 AM 52.9 °F - 47.8 °F 83% 29.89 in 3.0 mi South 8.1 mph - 0.01 in Rain Light Rain
9:56 AM 54.9 °F - 50.0 °F 84% 29.86 in 10.0 mi Variable 5.8 mph - 0.00 in Rain Light Rain
10:56 AM 57.9 °F - 50.9 °F 77% 29.84 in 10.0 mi Variable 4.6 mph - 0.00 in   Mostly Cloudy
11:27 AM 57.2 °F - 53.6 °F 88% 29.81 in 2.5 mi SSW 10.4 mph - 0.03 in Rain Light Rain
11:35 AM 57.2 °F - 51.8 °F 82% 29.79 in 5.0 mi Variable 5.8 mph - 0.03 in Rain Light Rain
11:56 AM 56.8 °F - 52.9 °F 87% 29.85 in 10.0 mi SSW 5.8 mph - 0.03 in Rain Light Rain
12:56 PM 59.0 °F - 54.0 °F 83% 29.81 in 9.0 mi South 10.4 mph 16.1 mph 0.01 in Rain Light Rain
1:13 PM 59.0 °F - 53.6 °F 82% 29.78 in 10.0 mi SSW 9.2 mph 17.3 mph 0.00 in   Overcast
1:56 PM 57.2 °F - 55.4 °F 94% 29.77 in 1.8 mi SSW 11.5 mph 18.4 mph N/A Rain Light Rain
2:03 PM 57.2 °F - 55.4 °F 94% 29.77 in 3.0 mi South 8.1 mph 18.4 mph 0.01 in Rain Light Rain
2:19 PM 57.2 °F - 55.4 °F 94% 29.76 in 2.5 mi SSW 12.7 mph 21.9 mph 0.03 in Rain Light Rain
2:25 PM 57.2 °F - 55.4 °F 94% 29.77 in 3.0 mi SSW 12.7 mph 23.0 mph 0.03 in Rain Light Rain
2:56 PM 57.9 °F - 54.9 °F 90% 29.81 in 7.0 mi SSW 13.8 mph 24.2 mph 0.04 in Rain Light Rain
3:22 PM 57.2 °F - 55.4 °F 94% 29.73 in 2.5 mi South 9.2 mph 18.4 mph 0.02 in Rain Light Rain
3:29 PM 57.2 °F - 55.4 °F 94% 29.74 in 5.0 mi SSW 8.1 mph 18.4 mph 0.02 in Rain Light Rain
3:46 PM 57.2 °F - 55.4 °F 94% 29.73 in 10.0 mi SSW 15.0 mph 20.7 mph 0.02 in   Mostly Cloudy
3:56 PM 59.0 °F - 54.9 °F 86% 29.77 in 10.0 mi SSW 13.8 mph 24.2 mph 0.02 in   Mostly Cloudy
4:08 PM 59.0 °F - 53.6 °F 82% 29.73 in 10.0 mi SW 11.5 mph 20.7 mph N/A   Mostly Cloudy
4:20 PM 51.8 °F - 44.6 °F 76% 29.78 in 1.8 mi West 21.9 mph 33.4 mph 0.01 in Rain Heavy Rain
4:23 PM 48.2 °F - 42.8 °F 82% 29.78 in 1.2 mi West 16.1 mph 33.4 mph 0.01 in Rain Rain
4:28 PM 44.6 °F 38.4 °F 41.0 °F 87% 29.80 in 1.5 mi West 12.7 mph 31.1 mph 0.01 in Rain Light Rain
4:32 PM 44.6 °F 37.2 °F 41.0 °F 87% 29.81 in 3.0 mi West 17.3 mph 24.2 mph 0.01 in Rain Light Rain
4:41 PM 42.8 °F 35.8 °F 39.2 °F 87% 29.81 in 4.0 mi WNW 13.8 mph 24.2 mph 0.02 in Rain Light Rain
5:01 PM 39.2 °F 30.8 °F 37.4 °F 93% 29.85 in 2.0 mi NW 15.0 mph 26.5 mph 0.01 in Rain Heavy Rain
5:08 PM 39.2 °F 30.5 °F 37.4 °F 93% 29.85 in 1.5 mi WNW 16.1 mph 20.7 mph 0.02 in Rain Light Rain
5:11 PM 39.2 °F 31.2 °F 37.4 °F 93% 29.85 in 3.0 mi WNW 13.8 mph 21.9 mph 0.02 in Rain Rain
5:20 PM 39.2 °F 32.5 °F 37.4 °F 93% 29.87 in 5.0 mi NW 10.4 mph 21.9 mph 0.02 in Rain Light Rain
5:32 PM 37.4 °F 28.9 °F 35.6 °F 93% 29.89 in 2.0 mi WNW 13.8 mph - 0.05 in Rain Light Rain
5:40 PM 37.4 °F 29.8 °F 35.6 °F 93% 29.90 in 6.0 mi WNW 11.5 mph 19.6 mph 0.05 in Rain Light Rain
5:56 PM 38.8 °F 31.6 °F 36.9 °F 93% 29.97 in 5.0 mi WNW 11.5 mph 17.3 mph 0.06 in Rain Light Rain
6:56 PM 37.9 °F 30.5 °F 34.9 °F 89% 30.04 in 10.0 mi WNW 11.5 mph - 0.00 in   Overcast
7:56 PM 37.4 °F 31.4 °F 35.6 °F 93% 30.04 in 10.0 mi WNW 8.1 mph - N/A   Overcast
8:35 PM 37.4 °F 32.1 °F 33.8 °F 87% 30.06 in 10.0 mi West 6.9 mph - 0.00 in   Overcast
8:56 PM 36.9 °F 30.1 °F 32.9 °F 86% 30.14 in 10.0 mi West 9.2 mph - 0.00 in   Overcast
9:08 PM 37.4 °F 32.8 °F 33.8 °F 87% 30.09 in 10.0 mi West 5.8 mph - N/A   Mostly Cloudy
9:56 PM 36.9 °F 29.1 °F 34.0 °F 89% 30.19 in 6.0 mi West 11.5 mph - 0.00 in Rain Light Rain
10:03 PM 37.4 °F 31.4 °F 33.8 °F 87% 30.14 in 7.0 mi WSW 8.1 mph - 0.00 in Rain Light Rain
10:56 PM 37.4 °F - 33.8 °F 87% 30.16 in 10.0 mi Calm Calm - N/A   Overcast
11:03 PM 37.4 °F - 33.8 °F 87% 30.16 in 10.0 mi Calm Calm - N/A   Overcast
11:56 PM 36.9 °F 32.2 °F 34.9 °F 93% 30.23 in 10.0 mi WSW 5.8 mph - N/A   Overcast